This is the latest recevied weather packets stored in our database for station/object KC8P. If no packets are shown the sender has not sent any weather packets the latest 10 day(s).
| Time | Temp. | Humidity | Pressure | Rain* | Wind** | Luminosity | Snow |
|---|---|---|---|---|---|---|---|
| 1778250581 | 12.22° C | 49% | 1011.8 hPa | 0 mm | - | 710 W/m² | - |
| 1778250517 | 12.22° C | 50% | 1011.8 hPa | 0 mm | - | 707 W/m² | - |
| 1778250451 | 12.22° C | 51% | 1011.8 hPa | 0 mm | - | 701 W/m² | - |
| 1778250384 | 12.22° C | 51% | 1012.1 hPa | 0 mm | - | 684 W/m² | - |
| 1778250319 | 12.22° C | 53% | 1011.8 hPa | 0 mm | - | 672 W/m² | - |
| 1778250275 | 12.22° C | 52% | 1011.8 hPa | 0 mm | - | 642 W/m² | - |
| 1778250266 | 12.22° C | 54% | 1011.8 hPa | 0 mm | - | 647 W/m² | - |
| 1778250123 | 11.67° C | 52% | 1011.8 hPa | 0 mm | - | 659 W/m² | - |
| 1778250057 | 11.67° C | 51% | 1011.8 hPa | 0 mm | - | 673 W/m² | - |
| 1778249991 | 11.67° C | 50% | 1011.8 hPa | 0 mm | - | 668 W/m² | - |
| 1778249925 | 11.67° C | 52% | 1011.8 hPa | 0 mm | - | 671 W/m² | - |
| 1778249860 | 11.67° C | 51% | 1011.8 hPa | 0 mm | - | 662 W/m² | - |
| 1778249792 | 12.22° C | 52% | 1011.8 hPa | 0 mm | - | 662 W/m² | - |
| 1778249726 | 12.22° C | 53% | 1011.8 hPa | 0 mm | - | 659 W/m² | - |
| 1778249660 | 12.22° C | 53% | 1011.8 hPa | 0 mm | - | 662 W/m² | - |
| 1778249595 | 11.67° C | 54% | 1012.1 hPa | 0 mm | - | 660 W/m² | - |
| 1778249529 | 11.67° C | 53% | 1012.1 hPa | 0 mm | - | 651 W/m² | - |
| 1778249464 | 11.67° C | 53% | 1012.1 hPa | 0 mm | - | 658 W/m² | - |
| 1778249398 | 11.67° C | 56% | 1012.1 hPa | 0 mm | - | 655 W/m² | - |
| 1778249332 | 11.67° C | 56% | 1012.1 hPa | 0 mm | - | 652 W/m² | - |
| 1778249267 | 11.67° C | 55% | 1012.1 hPa | 0 mm | - | 634 W/m² | - |
| 1778249202 | 11.67° C | 55% | 1012.1 hPa | 0 mm | - | 631 W/m² | - |
| 1778249135 | 12.22° C | 55% | 1011.8 hPa | 0 mm | - | 633 W/m² | - |
| 1778249070 | 12.22° C | 57% | 1012.1 hPa | 0 mm | - | 638 W/m² | - |
| 1778249005 | 12.22° C | 59% | 1012.1 hPa | 0 mm | - | 641 W/m² | - |
* Rain latest hour (hover to see other rain measurements)
** Current wind speed in m/s (hover to see current wind gust speed)